Regional Weather Roundup
Issued by NWS Charleston, WV

Home | Current Version | Previous Version | Text Only | Print | Product List | Glossary Off
Versions: 1 2 3 4 5 6 7 8 9 10 11 12 13 14 15 16 17 18 19 20 21 22 23 24 25 26 27

000
ASUS41 KRLX 202110
RWRRLX
West Virginia Regional Weather Roundup
National Weather Service Charleston WV
400 PM EST TUE FEB 20 2018

Note: "fair" indicates few or no clouds below 12,000 feet with no
significant weather and/or obstructions to visibility.

WVZ003-202200-
Northern Panhandle of West Virginia

CITY           SKY/WX    TMP DP  RH WIND       PRES   REMARKS
WHEELING         N/A     77  52  41 SW13G22   30.16S
$$

WVZ009-202200-
Northwest West Virginia

CITY           SKY/WX    TMP DP  RH WIND       PRES   REMARKS
PARKERSBURG      N/A     78  51  38 SW13      30.19S
$$

WVZ006-202200-
Western West Virginia

CITY           SKY/WX    TMP DP  RH WIND       PRES   REMARKS
HUNTINGTON       N/A     80  50  34 S10G22    30.17F
$$

WVZ015-202200-
West Central West Virginia

CITY           SKY/WX    TMP DP  RH WIND       PRES   REMARKS
CHARLESTON       N/A     80  50  34 S13G23    30.18F
$$

WVZ022-031-202200-
North Central West Virginia

CITY           SKY/WX    TMP DP  RH WIND       PRES   REMARKS
CLARKSBURG       N/A     78  51  38 SW13      30.19F
MORGANTOWN       N/A     78  50  37 VRB7      30.19F
$$

WVZ025-035-042-045-202200-
Southern West Virginia

CITY           SKY/WX    TMP DP  RH WIND       PRES   REMARKS
BECKLEY          N/A     75  45  34 SW9       30.28F
LOGAN            N/A     79  48  34 S9G16     30.23F
BLUEFIELD        N/A     73  41  31 S6        30.32S
LEWISBURG        N/A     74  51  44 S9        30.30S
$$

WVZ047-202200-
Northern Mountains of West Virginia

CITY           SKY/WX    TMP DP  RH WIND       PRES   REMARKS
ELKINS           N/A     76  47  35 S8        30.24S
$$

WVZ052-202200-
Eastern Panhandle of West Virginia

CITY           SKY/WX    TMP DP  RH WIND       PRES   REMARKS
MARTINSBURG      N/A     78  54  43 SE9       30.20F
PETERSBURG       N/A     78  48  35 S16G22    30.21S
$$




USA.gov is the U.S. government's official web portal to all federal, state and local government web resources and services.